Hourly Data Report for September 07, 2019

All times are specified in Local Standard Time (LST). Add 1 hour to adjust for Daylight Saving Time where and when it is observed.

EUREKA CLIMATE
NUNAVUT
Current Station Operator: ECCC - MSC

79°59'21.000" N
85°56'02.000" W
10.00 m
2401199
71613
NEK

Download Data

Hourly Data (September 2019)
Hourly Data Report for September 7, 2019
TIME Temp Definition
°C
Dew Point Definition
°C
Rel Hum Definition
%
Wind Dir Definition
10's deg

Wind Spd Definition
km/h
Visibility Definition
km
Stn Press Definition
kPa
Hmdx Definition


Wind Chill Definition


Weather Definition


00:00 1.0 -1.7 82 32 13   101.20     LegendNANA
01:00 0.7 -2.0 82 34 21   101.18     LegendNANA
02:00 0.5 -2.3 81 34 28   101.18     LegendNANA
03:00 0.2 -2.7 81 34 29   101.18     LegendNANA
04:00 0.4 -2.8 79 33 13   101.20     LegendNANA
05:00 0.3 -2.6 81 34 16   101.20     LegendNANA
06:00 0.8 -2.1 81 32 11   101.16     LegendNANA
07:00 1.4 -1.8 79 31 18   101.14     LegendNANA
08:00 1.1 -1.6 82 25 13   101.15     LegendNANA
09:00 0.9 -0.8 88 27 26   101.08     LegendNANA
10:00 1.2 -1.0 85 28 19   101.06     LegendNANA
11:00 0.8 -0.8 89 27 19   101.04     LegendNANA
12:00 0.6 -0.7 91 29 25   101.03     LegendNANA
13:00 0.3 -0.7 93 29 23   101.00     LegendNANA
14:00 0.3 -0.7 93 28 18   100.99     LegendNANA
15:00 0.2 -0.6 94 29 21   100.99     LegendNANA
16:00 0.8 -0.2 93 27 17   100.99     LegendNANA
17:00 1.0 -0.4 91 28 12   101.00     LegendNANA
18:00 1.2 -0.5 88 29 8   101.01     LegendNANA
19:00 0.9 -0.1 93 27 15   101.04     LegendNANA
20:00 0.9 0.0 93 28 16   101.06     LegendNANA
21:00 1.0 0.3 95 28 16   101.05     LegendNANA
22:00 1.2 0.2 93 28 17   101.05     LegendNANA
23:00 1.3 0.5 94 27 18   101.06     LegendNANA

Notes on Data Quality.

Legend

  • E = Estimated
  • M = Missing
  • NA = Not Available
Date modified: